Regional Weather Roundup
Issued by NWS Northern Indiana

Home | Current Version | Previous Version | Graphics & Text | Print | Product List | Glossary On
Versions: 1 2 3 4 5 6 7 8 9 10 11 12 13 14 15 16 17 18 19 20 21 22 23 24 25 26 27 28 29 30 31 32 33 34 35 36 37 38 39 40 41 42 43 44 45 46 47 48 49 50
994
ASUS43 KIWX 220810
RWRIWX

KIWX WEATHER ROUNDUP
NATIONAL WEATHER SERVICE NORTHERN INDIANA
400 AM EDT SUN OCT 22 2017

NOTE: "FAIR" INDICATES FEW OR NO CLOUDS BELOW 12,000 FEET WITH NO
SIGNIFICANT WEATHER AND/OR OBSTRUCTIONS TO VISIBILITY.

* THESE STATIONS ARE NOT UNDER NWS QUALITY CONTROL. THEY ALSO MAY NOT
  REPORT WEATHER SUCH AS PRECIPITATION OR FOG.

INZ001>027-220900-
NORTHERN INDIANA

CITY           SKY/WX    TMP DP  RH WIND       PRES   REMARKS
GARY*          PTCLDY    65  51  59 SE8       30.00F
VALPARAISO     CLOUDY    65  52  62 S7        30.04F
MICHIGAN CITY* CLOUDY    63  50  63 S7        30.04F
LAPORTE*       CLOUDY    63  50  63 S8        30.05F
KNOX*          CLOUDY    63  50  63 S12G18    30.05F
SOUTH BEND     CLOUDY    64  50  60 S10       30.06F
GOSHEN         PTCLDY    61  46  57 SE8       30.09F
MONTICELLO*    CLOUDY    63  49  59 SE7       30.05F
LOGANSPORT*    CLOUDY    55  48  76 SE8       30.09F
WARSAW*        CLOUDY    61  46  59 SE3       30.10F
AUBURN*        CLOUDY    54  46  76 CALM      30.13F
FORT WAYNE     CLOUDY    58  46  64 S3        30.14F
HUNTINGTON*    CLOUDY    60  46  61 S7        30.12F
PERU/GRISSOM   PTCLDY    60  48  64 S9        30.08F
MARION*        CLOUDY    57  46  67 S7        30.13S

$$
INZ028>050-220900-
CENTRAL INDIANA

CITY           SKY/WX    TMP DP  RH WIND       PRES   REMARKS
LAFAYETTE      CLOUDY    62  52  69 SE6       30.06F
KOKOMO*        CLOUDY    60  48  64 S9        30.11F
MUNCIE*        CLEAR     62  47  57 S8        30.13F
INDIANAPOLIS   PTCLDY    58  49  72 SE9       30.11F

$$
MIZ043>046-050>051-056>058-064>065-071>073-077>080-220900-
SOUTHWEST LOWER MICHIGAN

CITY           SKY/WX    TMP DP  RH WIND       PRES   REMARKS
BATTLE CREEK   CLOUDY    61  47  59 S9        30.11S
BENTON HARBOR  PTCLDY    64  49  57 SE8       30.04F
COLDWATER*     CLOUDY    59  45  60 S5        30.12F
HILLSDALE*     PTCLDY    55  45  67 SE6       30.14F
HOLLAND        PTCLDY    65  50  58 S10       30.05F
GRAND RAPIDS   CLOUDY    62  50  64 S10       30.07F
KALAMAZOO      CLEAR     61  46  57 S9        30.09F
STURGIS*       PTCLDY    60  47  63 S8        30.10F
THREE RIVERS*  FAIR      60  48  64 S5        30.10F

$$
OHZ001>008-015>018-024>025-220900-
NORTHWEST OHIO

CITY           SKY/WX    TMP DP  RH WIND       PRES   REMARKS
WAUSEON*       FAIR      52  48  87 SE6       30.15F
DEFIANCE       CLOUDY    57  46  66 SE3       30.15F
FINDLAY        CLEAR     53  46  77 SE6       30.17S
TOLEDO EXPRESS MOCLDY    52  49  89 CALM      30.16S
TOLEDO METCALF CLOUDY    54  47  77 SE6       30.18S
LIMA           CLEAR     53  47  79 S7        30.17F

$$
AND FOR LAKE MICHIGAN COASTAL AND OPEN LAKE BUOY OBSERVATIONS

STATION/POSITION TEMP    WIND        PRES    VSBY  WAVE
                 AIR SEA DIR/SP/G                  HT/PER
                 (F)     (DEG/KT/KT) (MB)    (MI)  (FT/S)
CALUMET HARBOR    65     170/  8/ 12 1014.9F
MICHIGAN CITY     65     150/ 13/ 15   N/A
BURNS HARBOR      65     170/ 12/ 21 1016.6F
SAINT JOSEPH      66     180/  3/  9 1017.6
SOUTH LAKE BUOY   63 61  140/ 17/ 21 1015.4F         4/ 5
4 MI NW BRIDGMAN  64 59  180/ 16/ 19 1016.9          2/ 3
MICHIGAN CITY     63 58  180/ 14/ 19   N/A           2/ 2

$$
&&




USA.gov is the U.S. government's official web portal to all federal, state and local government web resources and services.